When you browse on this site, cookies collect data to enhance your experience and personalize the content and advertising you see.
Visit our Privacy Policy to learn more. By continuing to use the site, you agree to this use of cookies and data.
  • en France
  • Liste des pays
  • À 7 jours
  • Température de l'eau
  • Carte météo
  • Widgets météo
  • user-avatar
    Se connecter

    Météo par heure à Glogow

    Ce jour, 24 Février, Lundi

    Heure Température Précipitation Vent Pression Humidité
    00:00 +3°C° 0.3 mm 7 m/s 733 mmHg 93%
    01:00 +2°C° 0 mm 10 m/s 735 mmHg 88%
    02:00 +1°C° 0.6 mm 10 m/s 736 mmHg 87%
    03:00 +1°C° 0.6 mm 11 m/s 738 mmHg 85%
    04:00 -1°C° 0.6 mm 11 m/s 739 mmHg 83%
    05:00 -1°C° 0.1 mm 11 m/s 740 mmHg 81%
    06:00 0°C° 0.1 mm 10 m/s 741 mmHg 79%
    07:00 0°C° 0.1 mm 9 m/s 743 mmHg 77%
    08:00 0°C° 0 mm 9 m/s 743 mmHg 75%
    09:00 +1°C° 0 mm 9 m/s 744 mmHg 73%
    10:00 +1°C° 0 mm 9 m/s 745 mmHg 71%
    11:00 +1°C° 0.1 mm 8 m/s 745 mmHg 74%
    12:00 +1°C° 0.1 mm 8 m/s 746 mmHg 77%
    13:00 +2°C° 0.1 mm 7 m/s 746 mmHg 81%
    14:00 +3°C° 0.1 mm 6 m/s 746 mmHg 78%
    15:00 +3°C° 0.1 mm 6 m/s 746 mmHg 76%
    16:00 +3°C° 0.1 mm 5 m/s 746 mmHg 73%
    17:00 +3°C° 0 mm 5 m/s 745 mmHg 75%
    18:00 +3°C° 0 mm 4 m/s 745 mmHg 77%
    19:00 +3°C° 0 mm 4 m/s 745 mmHg 78%
    20:00 +3°C° 0 mm 4 m/s 744 mmHg 78%
    21:00 +2°C° 0 mm 3 m/s 744 mmHg 78%
    22:00 +2°C° 0 mm 3 m/s 743 mmHg 78%
    23:00 +1°C° 0.3 mm 4 m/s 742 mmHg 83%

    Demain, 25 Février, Mardi

    Heure Température Précipitation Vent Pression Humidité
    00:00 +1°C° 0.3 mm 5 m/s 741 mmHg 88%
    01:00 -1°C° 0.3 mm 6 m/s 740 mmHg 93%
    02:00 +1°C° 1.4 mm 6 m/s 739 mmHg 91%
    03:00 0°C° 1.4 mm 7 m/s 737 mmHg 89%
    04:00 +2°C° 1.4 mm 7 m/s 736 mmHg 87%
    05:00 +3°C° 0.7 mm 7 m/s 736 mmHg 88%
    06:00 +4°C° 0.7 mm 8 m/s 735 mmHg 88%
    07:00 +5°C° 0.7 mm 8 m/s 735 mmHg 89%
    08:00 +6°C° 0.3 mm 7 m/s 735 mmHg 88%
    09:00 +6°C° 0.3 mm 7 m/s 734 mmHg 87%
    10:00 +6°C° 0.3 mm 7 m/s 734 mmHg 86%
    11:00 +8°C° 0.1 mm 7 m/s 734 mmHg 83%
    12:00 +8°C° 0.1 mm 6 m/s 734 mmHg 80%
    13:00 +9°C° 0.1 mm 6 m/s 734 mmHg 77%
    14:00 +9°C° 0.1 mm 6 m/s 733 mmHg 77%
    15:00 +9°C° 0.1 mm 6 m/s 733 mmHg 78%
    16:00 +8°C° 0.1 mm 6 m/s 732 mmHg 78%
    17:00 +8°C° 0.1 mm 6 m/s 732 mmHg 79%
    18:00 +8°C° 0.1 mm 6 m/s 732 mmHg 80%
    19:00 +8°C° 0.1 mm 7 m/s 732 mmHg 81%
    20:00 +7°C° 0.8 mm 6 m/s 732 mmHg 82%
    21:00 +5°C° 0.8 mm 6 m/s 732 mmHg 83%
    22:00 +5°C° 0.8 mm 5 m/s 732 mmHg 83%
    23:00 +5°C° 0 mm 4 m/s 732 mmHg 82%

    Après-demain, 26 Février, Mercredi

    Heure Température Précipitation Vent Pression Humidité
    00:00 +4°C° 0 mm 3 m/s 732 mmHg 82%
    01:00 +3°C° 0 mm 3 m/s 732 mmHg 81%
    02:00 +4°C° 0 mm 2 m/s 731 mmHg 82%
    03:00 +4°C° 0 mm 2 m/s 731 mmHg 83%
    04:00 +3°C° 0 mm 2 m/s 731 mmHg 84%
    05:00 +3°C° 0 mm 2 m/s 731 mmHg 84%
    06:00 +3°C° 0 mm 2 m/s 730 mmHg 85%
    07:00 +3°C° 0 mm 2 m/s 730 mmHg 86%
    08:00 +4°C° 0 mm 2 m/s 730 mmHg 78%
    09:00 +5°C° 0 mm 2 m/s 730 mmHg 71%
    10:00 +6°C° 0 mm 2 m/s 730 mmHg 63%
    11:00 +6°C° 0 mm 2 m/s 730 mmHg 61%
    12:00 +7°C° 0 mm 3 m/s 730 mmHg 60%
    13:00 +7°C° 0 mm 3 m/s 730 mmHg 59%
    14:00 +7°C° 0 mm 3 m/s 729 mmHg 60%
    15:00 +7°C° 0 mm 3 m/s 729 mmHg 62%
    16:00 +7°C° 0 mm 3 m/s 729 mmHg 63%
    17:00 +5°C° 0.1 mm 3 m/s 730 mmHg 69%
    18:00 +4°C° 0.1 mm 4 m/s 730 mmHg 75%
    19:00 +2°C° 0.1 mm 5 m/s 730 mmHg 81%
    20:00 +2°C° 0 mm 5 m/s 731 mmHg 81%
    21:00 +1°C° 0 mm 5 m/s 731 mmHg 81%
    22:00 +1°C° 0 mm 5 m/s 731 mmHg 81%
    23:00 0°C° 0.2 mm 5 m/s 732 mmHg 85%

    27 Février, Jeudi

    Heure Température Précipitation Vent Pression Humidité
    00:00 -1°C° 0.2 mm 6 m/s 732 mmHg 89%
    01:00 -2°C° 0.2 mm 6 m/s 732 mmHg 94%
    02:00 -2°C° 0.1 mm 6 m/s 733 mmHg 90%
    03:00 -1°C° 0.1 mm 6 m/s 733 mmHg 86%
    04:00 -1°C° 0.1 mm 6 m/s 733 mmHg 83%
    05:00 -2°C° 0.1 mm 6 m/s 734 mmHg 84%
    06:00 -2°C° 0.1 mm 6 m/s 735 mmHg 86%
    07:00 -3°C° 0.1 mm 6 m/s 735 mmHg 87%
    08:00 -2°C° 0.1 mm 6 m/s 736 mmHg 83%
    09:00 -1°C° 0.1 mm 5 m/s 736 mmHg 78%
    10:00 0°C° 0.1 mm 5 m/s 737 mmHg 73%
    11:00 0°C° 0.1 mm 5 m/s 737 mmHg 70%
    12:00 +1°C° 0.1 mm 5 m/s 737 mmHg 67%
    13:00 +1°C° 0.1 mm 5 m/s 738 mmHg 65%
    14:00 +1°C° 0.2 mm 5 m/s 738 mmHg 66%
    15:00 +1°C° 0.2 mm 4 m/s 738 mmHg 66%
    16:00 +1°C° 0.2 mm 4 m/s 738 mmHg 67%
    17:00 0°C° 0.1 mm 4 m/s 738 mmHg 72%
    18:00 0°C° 0.1 mm 3 m/s 738 mmHg 77%
    19:00 0°C° 0.1 mm 3 m/s 738 mmHg 82%
    20:00 -1°C° 0 mm 2 m/s 738 mmHg 83%
    21:00 -1°C° 0 mm 2 m/s 738 mmHg 85%
    22:00 +1°C° 0 mm 1 m/s 739 mmHg 87%
    23:00 +1°C° 0 mm 1 m/s 738 mmHg 87%

    28 Février, Vendredi

    Heure Température Précipitation Vent Pression Humidité
    00:00 0°C° 0 mm 1 m/s 738 mmHg 87%
    01:00 0°C° 0 mm 1 m/s 738 mmHg 87%
    02:00 0°C° 0 mm 1 m/s 737 mmHg 87%
    03:00 0°C° 0 mm 1 m/s 737 mmHg 86%
    04:00 0°C° 0 mm 1 m/s 737 mmHg 86%
    05:00 0°C° 0 mm 1 m/s 737 mmHg 85%
    06:00 -1°C° 0 mm 2 m/s 737 mmHg 84%
    07:00 -1°C° 0 mm 3 m/s 736 mmHg 83%
    08:00 -1°C° 0 mm 3 m/s 736 mmHg 78%
    09:00 -1°C° 0 mm 4 m/s 736 mmHg 73%
    10:00 -1°C° 0 mm 4 m/s 736 mmHg 67%
    11:00 0°C° 0 mm 4 m/s 737 mmHg 62%
    12:00 0°C° 0 mm 5 m/s 737 mmHg 57%
    13:00 0°C° 0 mm 5 m/s 738 mmHg 52%
    14:00 0°C° 0 mm 5 m/s 739 mmHg 52%
    15:00 0°C° 0 mm 4 m/s 740 mmHg 53%
    16:00 -1°C° 0 mm 4 m/s 741 mmHg 53%
    17:00 -2°C° 0 mm 4 m/s 742 mmHg 56%
    18:00 -2°C° 0 mm 3 m/s 743 mmHg 58%
    19:00 -3°C° 0 mm 2 m/s 743 mmHg 61%
    20:00 -3°C° 0 mm 2 m/s 744 mmHg 60%
    21:00 -3°C° 0 mm 2 m/s 744 mmHg 59%
    22:00 -1°C° 0 mm 1 m/s 745 mmHg 57%
    23:00 -1°C° 0 mm 1 m/s 745 mmHg 56%

    29 Février, Samedi

    Heure Température Précipitation Vent Pression Humidité
    00:00 -1°C° 0 mm 1 m/s 745 mmHg 54%
    01:00 -3°C° 0 mm 0 m/s 745 mmHg 52%
    02:00 -2°C° 0 mm 1 m/s 745 mmHg 51%
    03:00 -2°C° 0 mm 1 m/s 745 mmHg 50%
    04:00 -2°C° 0 mm 1 m/s 745 mmHg 50%
    05:00 -2°C° 0 mm 1 m/s 745 mmHg 49%
    06:00 -4°C° 0 mm 2 m/s 745 mmHg 49%
    07:00 -4°C° 0 mm 2 m/s 745 mmHg 48%
    08:00 -3°C° 0 mm 2 m/s 745 mmHg 43%
    09:00 -2°C° 0 mm 3 m/s 745 mmHg 38%
    10:00 -1°C° 0 mm 3 m/s 745 mmHg 32%
    11:00 -1°C° 0 mm 4 m/s 744 mmHg 31%
    12:00 0°C° 0 mm 4 m/s 744 mmHg 30%
    13:00 0°C° 0 mm 5 m/s 743 mmHg 28%
    14:00 0°C° 0 mm 5 m/s 742 mmHg 32%
    15:00 0°C° 0 mm 5 m/s 742 mmHg 35%
    16:00 -1°C° 0 mm 5 m/s 741 mmHg 38%
    17:00 -2°C° 0 mm 6 m/s 741 mmHg 44%
    18:00 -3°C° 0 mm 6 m/s 740 mmHg 50%
    19:00 -3°C° 0 mm 7 m/s 739 mmHg 56%
    20:00 -3°C° 0 mm 7 m/s 739 mmHg 62%
    21:00 -4°C° 0 mm 8 m/s 738 mmHg 68%
    22:00 -4°C° 0 mm 8 m/s 737 mmHg 74%
    23:00 -4°C° 0.1 mm 8 m/s 736 mmHg 75%
    Voir plus